Wetbulb
71.30 72.64 72.78 72.28 72.46 73.71 74.78 75.67 75.61 76.78 76.38 75.77 74.59 74.07 72.89 73.46 73.57 74.55 76.38 77.39 78.02 78.10 78.36 77.62 77.66 78.07 77.14 77.26 78.17 77.23 76.57 76.04 77.06 75.55 75.12 75.34 76.20 75.80 77.38 76.63 76.21 77.44 78.06
70.20 71.38 72.80 73.04 73.22 73.80 75.19 76.08 76.67 77.27 76.95 76.37 75.97 74.91 74.36 74.09 74.26 74.50 75.91 77.13 77.93 78.04 77.75 78.08 77.74 77.69 76.98 78.01 78.14 77.94 75.64 75.64 76.98 75.32 75.04 72.41 73.73 75.19 76.34 77.23 76.60 76.84 77.79
68.73 70.37 71.71 72.98 73.54 74.05 75.19 76.01 76.87 77.26 77.77 77.76 76.68 75.42 75.38 75.31 74.66 75.08 75.60 77.19 78.04 78.22 78.21 78.32 78.24 77.96 77.96 75.84 77.49 77.76 77.46 74.49 76.05 77.60 74.84 71.87 70.75 73.67 76.30 77.35 77.48 76.81 76.24
68.63 69.96 70.99 72.26 73.22 73.86 75.28 76.42 77.18 77.29 77.76 78.07 77.46 77.77 74.50 73.93 74.78 75.60 76.25 76.58 77.88 78.35 78.63 78.57 78.65 78.31 77.41 78.42 77.55 77.32 77.61 77.55 74.79 76.08 76.46 77.56 76.30 72.60 71.72 75.53 77.15 78.49 78.10
69.01 68.58 69.86 71.35 72.58 73.83 74.38 75.51 76.76 77.09 77.57 77.74 77.77 76.19 75.57 75.50 75.90 76.07 77.50 77.92 78.24 78.36 78.52 78.42 78.49 77.96 77.50 78.73 78.21 78.56 78.77 78.28 77.01 76.20 76.06 77.37 76.54 76.54 73.52 72.08 74.06 76.42 77.41
70.10 70.26 70.82 71.38 71.98 72.89 73.75 74.33 75.70 77.28 77.48 77.38 77.34 77.78 78.65 77.03 75.70 76.79 75.57 76.11 76.47 76.80 78.43 78.49 78.22 78.42 77.87 77.88 78.45 79.69 79.90 79.56 78.78 77.93 77.96 78.33 76.46 74.68 74.02 72.97 74.57 74.60 76.07
71.17 71.26 71.02 71.08 72.02 72.22 72.59 73.37 74.58 75.50 76.83 76.78 76.87 76.83 77.50 77.66 77.51 77.32 76.05 77.21 75.47 75.75 77.07 78.67 78.63 78.06 78.55 78.98 79.76 80.05 80.28 79.64 79.09 79.40 78.02 77.99 77.01 76.80 76.30 74.44 73.56 73.73 75.53
71.46 71.64 71.98 72.01 72.24 72.49 72.99 73.30 73.57 75.04 76.27 76.26 76.57 77.84 77.41 76.41 76.52 76.94 76.61 76.20 76.01 76.22 77.99 78.13 78.96 79.24 79.61 79.61 80.16 79.49 79.61 80.56 79.47 79.11 79.74 78.40 77.78 77.25 76.74 75.44 75.89 73.45 73.98
70.39 71.55 72.50 72.65 72.94 72.99 73.04 73.26 73.64 74.36 75.74 75.96 76.29 76.82 76.79 76.79 76.55 77.16 77.45 76.87 77.74 76.84 77.92 78.90 79.17 79.30 79.83 80.74 80.98 79.51 80.12 79.96 80.52 79.32 78.31 77.75 78.08 77.92 77.61 77.32 77.05 75.50 71.37
69.15 69.81 71.26 72.76 73.32 73.81 73.89 74.11 73.99 74.02 75.51 76.05 76.16 76.25 76.74 76.99 77.13 77.07 77.07 77.57 77.78 78.42 78.81 79.20 79.49 80.18 80.14 80.68 80.89 80.04 80.70 79.93 79.37 78.65 79.08 78.87 77.79 79.65 78.71 77.99 77.86 76.81 75.52
70.12 69.91 70.56 72.20 73.12 73.54 73.91 73.92 73.84 74.31 75.19 75.99 76.16 76.49 76.83 77.15 77.56 77.07 77.61 78.05 78.39 79.07 79.56 79.74 79.59 79.52 79.43 79.83 79.29 79.05 78.86 78.55 78.70 79.89 78.71 78.88 79.40 78.30 78.49 77.96 77.88 77.05 76.82
70.83 71.35 70.95 71.66 71.72 72.22 72.99 73.55 74.15 74.55 75.30 76.24 76.88 76.76 77.26 77.45 77.38 77.22 77.79 79.01 78.41 78.94 77.78 77.58 76.85 75.59 75.98 76.13 75.68 75.30 75.52 75.07 75.10 75.44 76.08 76.30 75.58 78.45 79.40 77.73 78.73 76.72 76.87
71.41 71.70 71.42 70.82 71.12 71.68 72.73 73.26 73.35 74.31 75.18 76.16 76.21 76.67 77.64 77.64 77.36 76.67 75.60 74.38 74.10 74.41 73.84 72.14 72.36 72.72 72.32 71.72 71.69 71.49 71.05 71.12 71.15 71.31 72.32 72.74 74.44 75.45 74.55 76.01 76.12 76.01 75.63
71.25 72.05 72.33 72.83 73.19 73.97 74.03 74.37 73.04 74.91 76.30 76.52 75.80 73.94 74.02 72.81 69.99 69.33 69.33 69.79 69.74 70.37 70.46 70.32 70.31 70.52 70.56 70.54 70.71 70.50 70.09 70.10 70.13 70.92 71.02 71.55 71.77 73.51 74.40 74.63 75.70 75.79 76.05
70.29 71.55 71.81 72.53 73.24 73.41 73.34 73.34 71.33 72.82 73.19 72.96 71.98 70.48 70.23 69.51 69.31 68.44 67.69 67.92 68.19 67.99 67.34 67.94 68.12 68.18 68.20 67.77 67.02 66.76 66.26 66.71 67.01 68.17 68.94 69.57 69.68 68.54 68.60 69.60 72.22 74.90 74.89
68.68 69.37 71.00 71.86 71.55 72.45 72.42 71.33 71.26 71.70 70.39 68.89 67.48 67.63 66.73 65.93 65.11 66.10 65.19 66.40 66.09 66.15 66.57 66.24 66.24 66.71 66.97 63.08 63.16 63.65 64.28 64.59 64.05 64.59 67.38 68.68 68.20 68.23 66.42 66.42 66.90 68.81 70.45
68.33 67.99 68.93 70.02 69.98 70.08 70.23 68.29 67.07 67.35 65.54 63.63 64.28 64.00 64.15 63.91 64.40 64.49 64.91 64.76 64.05 64.74 64.52 65.03 64.05 64.93 66.51 59.96 58.90 60.10 62.86 64.43 65.08 65.38 66.21 66.80 67.72 68.21 69.79 67.84 65.97 66.40 66.50
69.80 70.21 70.57 69.95 68.92 67.41 65.53 64.83 64.71 63.95 62.08 61.86 61.54 62.42 61.76 60.23 61.53 62.76 62.65 62.16 62.72 63.42 62.96 61.79 61.86 62.36 62.69 58.07 57.33 57.82 63.70 64.01 65.76 66.08 67.30 68.18 68.61 69.62 68.70 68.14 68.96 69.75 70.82
70.90 70.76 70.26 68.55 67.44 65.92 65.13 62.96 62.46 61.62 60.32 60.45 61.16 61.17 62.65 62.53 62.24 61.33 61.32 62.79 63.48 62.60 61.77 61.31 61.62 62.84 61.18 57.03 56.14 57.63 61.98 62.26 62.53 63.73 66.71 68.32 66.05 61.89 58.87 59.28 64.31 68.20 69.80
70.68 69.16 68.66 67.82 65.81 64.96 64.21 62.45 60.63 61.08 60.79 60.35 61.11 61.06 62.17 62.07 61.64 62.40 62.58 63.34 63.72 62.17 62.21 61.66 61.68 58.96 61.05 56.16 54.84 55.98 59.37 59.66 59.56 62.03 64.76 62.63 61.64 56.78 56.03 57.86 62.55 65.43 68.10
69.48 68.52 67.77 66.17 64.86 64.81 64.43 62.63 61.03 62.32 62.37 62.34 62.76 63.04 62.95 62.38 62.67 62.32 62.97 63.09 62.63 62.31 62.05 62.36 62.60 62.74 60.99 61.24 54.34 54.00 60.15 59.46 59.12 59.77 60.68 62.24 57.25 54.95 53.66 53.83 60.50 64.57 67.60
67.22 67.87 66.81 65.45 65.85 65.49 65.05 63.59 62.94 63.64 64.19 63.63 62.81 62.60 62.37 61.54 61.68 62.41 62.14 61.93 62.60 62.00 61.49 61.30 61.21 61.58 62.82 56.80 56.13 54.01 54.40 57.68 60.49 59.82 59.54 60.02 54.81 52.98 53.53 57.01 55.98 56.18 60.87
68.01 68.36 66.91 65.67 65.10 65.25 65.36 63.88 63.71 64.10 63.79 63.19 62.62 62.08 62.10 61.74 62.15 61.80 61.19 60.49 61.37 60.01 59.80 59.27 59.00 59.69 60.89 61.21 55.75 55.00 55.30 56.95 60.23 59.99 58.33 56.56 54.73 54.83 58.11 56.18 56.12 59.20 63.34
67.72 67.60 66.23 64.61 63.97 65.23 65.39 64.39 64.29 64.40 63.72 62.64 62.26 62.01 61.38 61.10 61.32 60.78 60.27 59.65 59.32 58.82 58.85 58.56 58.38 58.88 59.56 59.32 59.58 60.09 60.85 58.71 59.93 59.09 59.20 58.30 57.61 56.60 57.70 59.18 58.73 58.07 57.55
67.04 66.40 65.18 64.41 63.94 64.99 64.28 63.84 63.86 63.68 62.35 62.10 61.78 61.19 60.66 60.70 60.29 60.46 60.00 59.42 59.06 56.80 58.10 57.81 58.58 57.89 57.59 56.82 49.58 49.59 57.59 59.05 56.97 57.25 57.42 55.86 56.66 57.35 57.12 57.13 57.73 57.63 57.28
66.79 65.98 65.51 64.80 64.28 64.47 63.73 63.25 63.69 63.39 62.18 61.08 60.66 60.19 59.89 59.89 60.01 59.69 58.20 52.07 51.49 49.97 47.59 46.45 50.14 57.27 51.79 45.75 44.61 44.49 45.44 47.21 48.85 58.31 55.54 54.56 54.77 54.57 56.70 57.15 56.12 56.28 56.56
MSLP
1004.89 1005.87 1006.72 1007.44 1008.13 1008.95 1009.84 1010.60 1011.29 1011.94 1012.60 1012.99 1013.05 1013.22 1013.14 1013.39 1013.51 1013.53 1013.81 1014.07 1014.18 1014.21 1014.35 1014.07 1013.97 1014.02 1014.17 1014.07 1014.27 1014.14 1013.93 1013.68 1013.28 1013.05 1012.16 1011.72 1011.29 1011.27 1011.31 1011.28 1011.05 1011.30 1011.38
1004.02 1005.05 1006.03 1006.78 1007.55 1008.32 1009.19 1010.09 1010.77 1011.52 1012.12 1012.21 1012.44 1012.57 1012.69 1012.71 1012.84 1012.92 1013.17 1013.65 1013.77 1013.82 1013.86 1013.98 1013.83 1013.78 1013.76 1014.00 1014.25 1014.24 1013.71 1013.17 1012.95 1012.96 1012.33 1011.01 1010.44 1010.85 1010.82 1010.94 1011.10 1010.97 1010.87
1002.94 1004.15 1005.07 1005.85 1006.62 1007.39 1008.41 1009.23 1010.05 1010.63 1011.34 1011.65 1012.08 1012.45 1012.56 1012.55 1012.32 1012.47 1012.71 1012.85 1013.20 1013.27 1013.27 1013.35 1013.55 1013.65 1013.82 1013.40 1013.42 1013.70 1013.74 1013.13 1012.73 1012.70 1012.79 1011.57 1010.55 1010.45 1010.36 1010.25 1010.27 1010.70 1010.46
1002.13 1003.03 1004.06 1004.82 1005.48 1006.25 1007.29 1008.23 1009.14 1009.91 1010.53 1011.19 1011.17 1011.44 1011.35 1011.29 1011.24 1011.48 1011.49 1011.75 1012.04 1012.49 1012.73 1012.91 1013.13 1013.35 1013.31 1013.00 1012.95 1012.99 1013.23 1013.17 1012.45 1012.03 1011.69 1011.86 1012.03 1011.40 1010.26 1009.86 1009.65 1009.92 1010.06
1000.77 1001.51 1002.38 1003.53 1004.59 1005.50 1006.26 1007.14 1008.14 1009.05 1009.72 1010.32 1010.66 1010.82 1011.12 1010.60 1010.79 1010.86 1011.12 1011.51 1011.70 1011.81 1012.01 1012.08 1012.45 1012.87 1012.97 1012.61 1012.67 1012.78 1012.77 1012.63 1012.30 1011.86 1011.46 1011.29 1011.29 1011.25 1011.04 1009.57 1009.13 1008.77 1008.58
999.55 1000.31 1001.22 1002.53 1003.52 1004.57 1005.37 1006.07 1007.18 1008.22 1009.02 1009.61 1010.22 1010.34 1010.21 1010.42 1010.18 1010.33 1010.51 1010.71 1010.69 1010.81 1011.35 1011.63 1011.88 1012.07 1012.09 1012.13 1012.23 1012.27 1012.27 1012.19 1012.01 1011.52 1011.37 1011.17 1010.77 1010.31 1009.95 1009.46 1008.95 1008.27 1007.91
998.05 999.11 1000.11 1001.03 1002.06 1002.89 1003.83 1004.82 1005.88 1007.01 1007.98 1008.68 1009.28 1009.64 1009.65 1009.98 1010.09 1010.30 1010.21 1010.27 1009.93 1010.00 1010.27 1010.86 1011.29 1011.29 1011.51 1011.77 1011.75 1011.68 1011.70 1011.64 1011.23 1011.20 1010.82 1010.41 1009.89 1009.55 1009.57 1009.50 1008.68 1008.05 1007.44
996.65 997.41 998.47 999.69 1000.74 1001.74 1002.71 1003.63 1004.48 1005.83 1006.97 1007.67 1008.26 1008.87 1009.28 1009.47 1009.59 1009.90 1009.86 1009.75 1009.57 1009.54 1009.79 1010.42 1010.78 1010.85 1010.93 1011.08 1011.16 1011.09 1010.76 1010.54 1010.46 1010.65 1010.58 1010.07 1009.83 1009.13 1008.54 1008.99 1009.55 1008.40 1007.22
995.87 996.39 997.33 998.21 999.36 1000.57 1001.59 1002.54 1003.52 1004.72 1005.79 1006.58 1007.31 1007.88 1008.56 1009.02 1008.76 1009.33 1009.55 1009.81 1009.95 1009.59 1009.81 1010.25 1010.49 1010.51 1010.53 1010.54 1010.61 1010.44 1010.10 1009.85 1010.07 1009.94 1009.95 1009.75 1009.51 1008.69 1008.24 1008.21 1008.60 1008.85 1007.72
995.79 996.02 996.39 997.29 998.39 999.32 1000.29 1001.70 1002.73 1003.80 1005.05 1005.85 1006.69 1007.37 1007.89 1008.47 1008.81 1009.17 1009.44 1009.49 1009.47 1009.54 1009.66 1009.75 1010.04 1010.18 1010.26 1010.28 1010.20 1009.85 1009.49 1009.40 1009.27 1009.01 1009.06 1008.87 1008.39 1008.42 1007.85 1007.45 1007.52 1007.83 1008.13
995.57 995.57 995.89 996.78 997.71 998.51 999.36 1000.61 1001.89 1003.03 1004.44 1005.21 1005.87 1006.85 1007.37 1007.80 1008.37 1008.63 1008.74 1009.14 1009.23 1009.45 1009.80 1009.98 1009.84 1010.09 1010.18 1010.16 1010.11 1010.03 1009.75 1009.45 1009.03 1008.86 1008.89 1008.26 1008.39 1007.97 1007.56 1006.60 1006.55 1007.11 1007.33
996.85 996.92 996.51 996.72 998.02 998.67 999.51 1000.25 1001.57 1002.73 1003.81 1004.81 1005.49 1006.55 1007.03 1007.31 1007.81 1008.39 1008.41 1008.82 1008.94 1009.45 1010.09 1010.45 1010.52 1010.59 1010.66 1010.53 1010.31 1010.11 1009.73 1009.33 1008.84 1008.41 1008.26 1007.78 1007.42 1007.20 1006.89 1006.42 1006.14 1006.55 1006.70
998.24 998.31 998.41 998.51 998.71 999.17 1000.24 1001.50 1002.17 1003.57 1003.77 1005.22 1005.81 1006.60 1007.48 1007.98 1008.39 1009.33 1009.54 1009.36 1009.81 1009.94 1010.30 1010.81 1010.47 1010.51 1010.60 1010.47 1010.43 1010.25 1009.85 1009.55 1009.11 1008.65 1008.20 1007.67 1007.32 1006.82 1006.40 1006.16 1005.78 1005.85 1006.05
998.94 999.05 999.50 999.89 1000.44 1001.21 1001.81 1002.33 1003.25 1004.11 1006.16 1005.60 1007.38 1008.03 1008.70 1009.41 1009.56 1010.28 1010.66 1010.15 1010.15 1010.58 1010.53 1010.79 1010.53 1010.58 1010.58 1010.56 1010.35 1010.08 1009.82 1009.42 1008.92 1008.54 1008.15 1007.56 1006.99 1006.53 1006.11 1005.60 1005.41 1005.28 1005.09
999.40 999.93 1000.63 1001.14 1001.65 1002.69 1003.81 1003.67 1003.61 1005.19 1007.79 1007.66 1008.40 1009.38 1009.35 1009.81 1009.61 1010.18 1010.24 1009.93 1010.84 1010.82 1010.78 1010.81 1010.72 1010.90 1010.71 1010.43 1010.97 1010.63 1010.35 1009.87 1009.35 1008.66 1007.97 1007.23 1006.65 1006.45 1006.40 1006.00 1005.16 1004.56 1004.05
1000.14 1001.19 1001.31 1002.62 1003.28 1003.96 1004.58 1004.95 1005.05 1006.99 1009.01 1008.04 1010.24 1010.35 1010.64 1011.14 1010.09 1010.65 1010.51 1010.29 1011.05 1011.22 1010.73 1010.82 1010.92 1011.15 1010.88 1011.43 1011.41 1011.15 1010.53 1009.83 1009.09 1008.34 1007.59 1006.92 1006.40 1005.62 1005.17 1004.99 1004.89 1004.79 1004.53
1000.50 1001.72 1002.52 1003.73 1004.31 1004.99 1005.55 1006.15 1007.92 1008.42 1008.81 1010.87 1010.58 1010.72 1010.59 1012.24 1010.69 1010.69 1011.03 1011.09 1011.23 1011.08 1010.86 1011.13 1011.43 1011.62 1011.39 1011.81 1011.72 1011.21 1010.28 1009.18 1008.28 1007.71 1007.19 1006.54 1005.81 1005.41 1004.57 1003.97 1003.65 1003.39 1003.28
1000.43 1001.72 1002.91 1004.05 1004.95 1006.25 1006.90 1007.74 1007.97 1009.33 1008.52 1009.76 1010.23 1011.92 1010.71 1011.90 1012.16 1011.85 1011.67 1011.81 1011.26 1011.00 1011.42 1011.73 1012.13 1012.08 1011.81 1012.09 1011.62 1010.97 1009.52 1008.76 1008.03 1007.43 1006.77 1006.01 1005.39 1004.81 1004.46 1004.02 1003.18 1002.55 1002.22
1000.60 1002.17 1003.47 1004.69 1005.95 1006.79 1007.47 1008.04 1008.42 1008.71 1008.44 1009.12 1009.99 1011.15 1010.83 1011.67 1012.38 1012.48 1012.05 1011.48 1011.35 1011.50 1011.68 1012.09 1012.17 1012.01 1011.94 1011.79 1011.39 1010.71 1009.42 1008.67 1008.16 1007.45 1006.63 1005.73 1005.51 1005.26 1005.17 1004.44 1003.23 1002.23 1001.63
1001.21 1002.67 1004.13 1004.69 1005.91 1007.09 1008.12 1009.16 1008.77 1007.91 1008.99 1010.65 1011.00 1010.93 1011.64 1012.25 1012.69 1012.35 1011.89 1011.71 1011.56 1011.86 1011.93 1012.11 1012.21 1012.18 1011.71 1011.58 1011.31 1010.88 1009.79 1009.01 1008.36 1007.39 1006.25 1005.78 1005.71 1005.55 1004.88 1004.23 1003.03 1001.81 1001.21
1002.18 1003.52 1004.45 1005.44 1006.86 1007.63 1008.43 1008.96 1009.01 1008.86 1009.41 1010.56 1011.38 1011.69 1011.80 1012.46 1012.63 1012.19 1011.86 1011.85 1011.94 1012.02 1011.90 1011.77 1011.69 1011.49 1011.53 1011.34 1011.33 1010.98 1009.79 1009.09 1008.17 1007.23 1006.33 1005.67 1005.64 1005.04 1004.33 1003.52 1002.55 1001.77 1001.08
1002.66 1003.56 1004.49 1005.78 1006.60 1007.60 1007.86 1008.69 1008.94 1009.27 1010.11 1010.97 1011.11 1011.46 1011.93 1011.87 1012.16 1012.03 1012.16 1012.34 1011.91 1011.91 1011.82 1011.68 1011.02 1010.89 1010.93 1011.09 1011.05 1010.64 1009.86 1009.29 1008.03 1007.26 1006.95 1006.34 1005.93 1005.04 1004.10 1002.96 1002.09 1001.61 1001.30
1002.66 1003.70 1004.69 1005.67 1006.74 1007.55 1008.00 1008.52 1009.17 1009.72 1010.29 1010.79 1011.26 1011.78 1012.03 1012.21 1012.23 1012.21 1012.13 1011.89 1012.10 1011.87 1011.61 1011.31 1011.18 1010.89 1010.63 1010.79 1010.66 1010.08 1009.39 1008.93 1007.93 1007.82 1007.31 1006.60 1005.95 1005.07 1004.17 1003.57 1002.56 1001.89 1001.53
1002.91 1003.88 1004.76 1005.80 1006.79 1007.53 1008.08 1008.76 1009.43 1009.98 1010.50 1011.11 1011.51 1011.78 1011.97 1012.09 1012.05 1011.80 1011.85 1012.00 1012.05 1012.11 1011.83 1011.72 1011.35 1011.19 1011.09 1011.23 1011.09 1010.55 1009.39 1008.64 1008.07 1007.95 1007.39 1006.95 1006.30 1005.68 1004.94 1004.21 1003.76 1003.47 1003.19
1003.05 1003.97 1004.80 1005.91 1006.77 1007.55 1008.25 1009.03 1009.63 1009.96 1010.50 1010.89 1011.23 1011.46 1011.53 1011.66 1011.99 1011.98 1012.09 1012.26 1012.91 1012.98 1012.67 1012.72 1012.14 1011.97 1011.69 1012.28 1012.60 1012.10 1010.83 1009.90 1009.19 1008.49 1007.94 1007.33 1006.87 1006.36 1005.73 1005.38 1004.96 1004.88 1004.69
1003.31 1004.14 1005.00 1006.00 1006.88 1007.71 1008.39 1009.07 1009.58 1009.83 1010.16 1010.48 1010.60 1010.68 1011.04 1011.28 1011.46 1011.70 1012.48 1013.11 1013.38 1013.66 1013.75 1013.68 1013.58 1012.79 1012.71 1012.55 1012.08 1011.63 1011.24 1010.59 1009.61 1008.69 1008.72 1008.32 1007.93 1007.68 1007.07 1006.81 1006.47 1006.19 1006.00
Wind_Speed
19 19 18 18 18 17 16 16 15 14 11 10 10 10 10 9 9 9 11 10 10 10 8 8 8 7 7 6 7 7 8 7 6 7 8 7 9 6 3 4 5 3 5
19 19 20 19 19 18 17 16 15 15 14 10 9 8 8 8 8 8 9 11 12 11 10 9 9 8 8 7 7 7 8 7 6 6 9 7 7 3 7 3 4 5 4
20 20 21 21 20 20 19 17 17 17 16 14 9 8 6 7 8 9 9 10 12 13 13 12 10 10 9 9 8 8 8 9 8 6 5 7 8 11 6 8 3 4 7
20 20 22 23 22 22 20 19 18 17 16 16 12 13 10 10 10 9 8 8 11 12 12 12 11 11 10 10 8 8 8 8 10 8 8 8 9 7 7 7 6 10 8
21 23 25 24 22 21 19 18 19 18 17 17 16 13 14 11 9 9 9 9 9 11 12 12 12 11 10 10 10 9 9 9 9 9 9 9 9 8 10 12 9 9 7
23 22 21 21 22 21 20 19 19 17 18 17 18 17 15 14 11 10 9 8 9 8 11 11 11 11 11 11 10 10 11 10 10 9 9 8 9 11 11 11 12 13 10
22 22 22 22 21 24 24 21 20 20 19 19 18 19 19 16 15 12 10 10 8 8 9 9 10 10 11 10 9 10 10 11 10 11 10 10 12 10 11 12 13 13 11
22 24 25 24 23 24 23 22 22 19 19 19 18 15 17 11 11 12 10 9 9 8 7 7 9 10 9 10 10 10 11 12 11 13 12 11 12 12 10 9 10 13 13
17 22 21 22 23 23 24 24 21 19 19 19 16 16 14 14 11 11 9 9 10 9 10 9 10 10 10 10 11 11 12 12 12 14 13 11 13 12 10 10 10 9 14
15 17 18 20 20 22 22 21 20 19 17 15 14 12 12 11 10 10 11 10 9 8 8 8 9 10 11 11 11 11 12 11 10 11 14 13 11 11 11 12 11 10 11
8 13 15 17 18 18 18 19 17 17 14 13 12 11 10 10 10 10 9 9 9 7 8 9 9 9 10 9 8 10 11 13 13 13 14 16 14 12 13 13 12 10 11
3 3 7 12 12 15 16 16 16 14 13 13 11 10 10 9 9 8 7 2 4 1 4 6 6 6 9 10 11 13 14 14 15 16 15 16 13 14 13 14 13 10 11
4 6 8 7 10 10 13 10 11 10 13 11 12 11 7 6 8 5 5 6 3 2 2 4 6 7 8 9 10 12 13 14 15 16 15 16 15 15 14 14 14 11 10
7 7 8 10 10 11 12 15 12 12 8 13 10 10 9 8 9 6 4 5 5 2 3 5 6 7 8 9 10 10 12 14 14 15 16 17 17 16 16 15 15 14 13
7 9 11 12 13 13 11 15 15 16 10 12 11 9 10 9 9 6 6 7 4 4 4 6 7 8 8 6 11 11 13 14 15 16 16 17 17 17 16 14 16 16 13
8 9 12 12 13 14 13 13 17 15 9 16 8 9 8 6 9 6 8 7 4 4 5 5 7 8 7 9 11 12 11 13 15 15 15 16 19 20 22 24 25 21 18
13 13 14 13 13 14 14 16 14 13 14 7 10 8 10 3 8 7 5 5 4 6 7 7 8 9 9 15 15 16 12 13 14 13 13 14 13 17 18 17 16 21 23
15 17 15 15 15 15 15 13 15 11 12 12 11 5 10 7 4 5 5 5 6 8 7 6 5 6 5 13 15 18 12 12 14 14 15 14 15 15 14 16 18 17 18
17 16 16 16 15 13 12 13 13 14 11 11 11 7 8 7 4 5 5 6 6 6 5 5 5 8 9 11 15 16 11 12 14 13 15 12 12 12 22 13 13 16 14
18 19 18 18 16 13 10 7 6 13 13 9 9 8 8 6 4 5 6 5 6 6 5 6 7 6 9 9 13 14 8 11 11 12 13 10 9 19 20 13 11 11 9
21 19 17 15 13 12 10 9 9 13 14 11 9 9 8 6 5 6 6 5 7 6 6 6 4 7 9 12 12 17 12 10 11 10 11 12 19 22 21 15 9 9 5
22 19 17 14 13 13 11 10 12 13 12 10 10 9 7 5 6 7 7 6 5 6 6 6 6 7 8 5 10 15 13 12 10 10 10 12 19 18 15 15 10 10 7
19 17 16 16 13 11 10 12 12 11 11 10 10 9 8 7 6 6 6 5 5 5 6 7 8 7 9 10 8 12 14 11 10 10 12 15 15 13 9 15 13 10 4
18 16 17 16 14 12 11 12 12 11 11 11 11 9 8 7 5 5 5 5 5 6 7 7 8 8 9 11 12 12 12 11 13 13 10 12 11 11 10 9 9 8 8
16 15 15 14 14 13 13 13 13 12 12 11 10 9 7 7 7 6 5 7 7 6 6 6 7 8 9 10 9 8 11 11 10 10 9 10 11 9 10 10 10 7 7
16 14 15 15 15 14 13 12 12 12 12 11 8 7 7 6 5 6 8 3 3 4 6 7 5 6 1 9 12 12 13 14 13 8 8 8 10 11 10 9 8 8 10
Wind_Direction
186 183 188 188 190 190 192 196 196 194 198 200 204 212 221 222 229 230 232 237 236 242 241 257 251 245 259 289 289 261 254 284 296 300 290 311 272 259 272 255 277 263 234
186 187 187 190 196 193 197 199 206 196 200 202 209 214 217 225 228 230 233 228 237 242 245 251 263 267 282 266 272 269 285 281 282 289 307 304 297 126 240 295 262 272 248
190 189 193 196 197 200 198 201 205 205 204 213 198 201 227 232 214 222 229 225 232 241 240 248 254 274 269 272 265 254 261 283 296 279 275 304 315 332 303 225 256 289 263
193 191 196 201 203 201 200 203 205 207 204 203 206 208 213 222 222 227 228 235 224 234 239 242 247 254 268 281 268 251 262 273 281 284 270 259 287 295 299 299 249 225 241
195 193 198 198 203 202 201 199 202 207 213 201 218 207 224 229 232 232 234 234 251 237 240 240 244 249 248 247 250 265 261 274 272 283 290 288 276 241 265 290 294 289 271
197 203 198 191 198 200 204 203 201 205 207 209 208 221 224 228 240 223 239 237 241 227 219 247 241 239 243 244 249 257 256 259 276 275 277 268 279 293 288 277 279 283 284
199 199 200 196 198 200 201 203 202 206 206 208 212 216 223 227 236 241 237 251 250 237 237 223 237 235 229 248 256 258 257 264 258 264 270 278 279 277 274 282 282 285 281
201 203 197 199 198 202 202 203 201 204 203 208 212 218 222 224 230 237 249 249 244 253 258 250 253 254 250 250 254 253 248 248 249 254 254 271 273 273 260 269 278 282 284
213 210 207 200 196 196 198 202 204 199 203 204 207 212 214 224 235 244 244 238 255 260 241 249 262 262 261 260 268 264 270 269 264 259 257 249 268 264 262 241 238 245 273
223 220 209 201 200 197 195 194 196 198 200 201 203 207 208 214 221 230 240 253 262 258 266 266 267 271 272 273 273 272 271 271 269 265 262 261 264 278 279 266 264 253 247
234 212 200 199 198 193 189 186 189 187 191 196 190 197 195 198 204 221 220 235 250 260 267 272 275 287 294 294 292 285 281 275 277 272 269 268 264 263 263 258 243 247 242
165 224 222 177 187 186 185 177 181 179 182 175 171 188 185 188 192 211 211 233 239 307 315 305 307 305 300 296 294 290 294 290 286 286 285 280 280 275 264 262 262 243 246
148 159 167 179 182 143 140 138 152 177 151 156 163 164 152 126 118 114 115 113 96 67 357 293 304 306 303 302 298 294 293 290 289 287 285 282 280 274 273 274 269 249 241
151 148 148 141 133 135 144 140 126 110 126 112 104 113 113 107 102 90 76 74 65 338 345 323 322 313 312 308 298 308 306 300 293 292 290 288 283 280 280 267 258 263 257
156 149 146 138 133 120 127 121 102 110 131 109 115 115 128 121 101 108 106 70 30 23 14 353 348 335 323 323 338 324 313 306 298 295 290 281 280 291 288 285 282 286 264
149 143 123 130 135 139 123 102 103 106 107 103 98 97 69 64 85 76 59 81 34 13 24 12 354 333 322 22 333 315 306 295 288 284 282 287 285 268 250 247 253 258 267
153 146 139 137 121 111 108 101 93 107 101 89 99 86 69 48 61 68 65 55 44 30 28 16 4 326 328 24 349 329 301 296 296 289 283 282 282 295 290 282 259 250 242
154 145 135 127 115 112 106 112 119 122 109 102 97 105 85 67 53 64 75 52 44 36 26 11 343 341 16 11 342 332 309 309 306 306 299 300 298 291 301 299 289 285 283
144 138 127 121 120 124 129 134 145 142 120 102 89 101 89 80 75 68 67 51 52 50 46 33 15 11 7 11 347 343 334 329 318 315 304 316 318 342 329 314 287 274 267
136 135 141 131 128 126 134 123 100 96 85 96 110 99 100 107 113 96 73 65 71 64 57 48 30 16 8 32 354 355 339 325 322 316 321 318 347 330 313 303 286 280 245
140 136 130 121 121 129 144 139 141 111 111 116 129 131 114 123 114 93 75 86 79 72 51 44 54 36 24 9 8 343 341 343 326 328 330 331 348 325 316 302 276 277 241
141 142 128 135 142 151 145 139 119 117 124 133 117 116 130 111 99 94 88 69 69 58 61 30 22 20 13 10 9 324 310 322 335 341 335 332 328 321 324 319 317 277 237
143 140 139 137 140 148 141 134 126 124 128 129 125 122 114 108 103 93 87 95 85 58 43 40 33 12 19 12 4 322 319 359 345 360 335 322 327 333 339 356 12 20 8
145 140 140 140 144 147 140 130 138 141 140 138 138 137 126 114 98 97 91 78 69 68 56 45 38 18 22 17 360 351 352 358 10 6 1 354 351 359 360 2 30 43 56
143 143 142 143 140 140 140 145 149 150 145 142 139 144 133 119 113 73 69 101 63 34 42 38 17 12 19 9 327 328 348 352 359 355 8 13 7 10 17 24 36 42 46
144 148 147 146 148 149 146 146 153 154 149 149 151 140 138 139 115 132 122 73 76 198 232 259 287 345 23 341 329 333 328 333 324 30 23 16 19 18 19 28 35 34 39